Regional Weather Roundup
Issued by NWS

Home | Current Version | Previous Version | Text Only | Print | Product List | Glossary On
Versions: 1 2 3 4 5 6 7 8 9 10 11 12 13 14 15 16 17 18 19 20 21 22 23 24 25 26 27 28 29 30 31 32 33 34 35 36 37 38 39 40 41 42 43 44 45 46 47 48 49
000
ASUS46 KSEW 241110
RWRWA

WASHINGTON REGIONAL WEATHER ROUNDUP
NATIONAL WEATHER SERVICE SEATTLE WA
400 AM PDT THU JUL 24 2014

NOTE:"FAIR" INDICATES FEW OR NO CLOUDS BELOW 12,000 FEET WITH NO
SIGNIFICANT WEATHER AND/OR OBSTRUCTIONS TO VISIBILITY.

WAZ505-507>509-241200-
SEATTLE, TACOMA, EVERETT, AND VICINITY

CITY           SKY/WX    TMP DP  RH WIND       PRES   REMARKS
EVERETT        CLOUDY    55  52  89 S14       30.06S
BOEING FIELD   CLOUDY    60  50  69 S8        30.07R
RENTON         CLOUDY    57  54  89 E5        30.07S
SEATAC AIRPORT LGT RAIN  57  51  80 S10       30.08R
JBLM-MCCHORD   LGT RAIN  57  50  77 S8        30.09R
PUYALLUP       CLOUDY    57  50  77 SW3       30.09R
JBLM-FT LEWIS  DRIZZLE   57  51  80 SE13      30.08R
TACOMA NARROWS CLOUDY    57  50  77 S10       30.07R
$$

WAZ001-503-506-510-514-515-241200-
NORTH INTERIOR

CITY           SKY/WX    TMP DP  RH WIND       PRES   REMARKS
BELLINGHAM     LGT RAIN  58  52  80 S10G20    30.03R
FRIDAY HARBOR  LGT RAIN  53  51  93 CALM      30.04R
EASTSOUND      LGT RAIN  55  54  94 S9        30.02R
PORT ANGELES   CLOUDY    55  51  86 CALM      30.04R
NAS WHIDBEY    LGT RAIN  58  53  84 S13       30.05R
BURLINGTON     CLOUDY    57  54  88 S7        30.05S
$$

WAZ020-022-039-040-504-511-512-241200-
SOUTHWEST INTERIOR

CITY           SKY/WX    TMP DP  RH WIND       PRES   REMARKS
SHELTON        CLOUDY    56  53  90 CALM      30.05R
OLYMPIA        CLOUDY    56  52  86 S13       30.07S
CHEHALIS       CLOUDY    57  54  88 S13G18    30.09R
KELSO          CLOUDY    57  50  77 S14       30.15S
VANCOUVER      MOCLDY    59  51  75 VRB5      30.16R
SCAPPOOSE, OR  MOCLDY    56  52  86 S7        30.13S
PORTLAND, OR   MOCLDY    58  52  80 S12       30.17R
$$

WAZ021-516-517-241200-
WASHINGTON COAST

CITY           SKY/WX    TMP DP  RH WIND       PRES   REMARKS
FORKS          LGT RAIN  54  53  97 N3        30.05R
HOQUIAM        LGT RAIN  58  57  97 NE6       30.04R FOG
ASTORIA, OR    CLOUDY    58  56  93 SW12      30.07R
$$

WAZ019-023-024-040-518-519-241200-
CASCADE MOUNTAINS AND COLUMBIA GORGE

CITY           SKY/WX    TMP DP  RH WIND       PRES   REMARKS
STAMPEDE PASS  NOT AVBL
TROUTDALE, OR  CLOUDY    59  50  72 SW6       30.16R
THE DALLES, OR PTCLDY    59  47  64 NW7       30.14R
$$

WAZ026-027-041>044-520-521-241200-
EAST SLOPES

CITY           SKY/WX    TMP DP  RH WIND       PRES   REMARKS
OMAK           CLEAR     56  41  57 S12       29.97R
WENATCHEE      PTCLDY    53  44  71 S3        30.03R
ELLENSBURG     PTCLDY    49  43  80 W8        30.07R
YAKIMA         MOCLDY    50  43  77 CALM      30.08R
$$

WAZ028-034-035-241200-
COLUMBIA BASIN

CITY           SKY/WX    TMP DP  RH WIND       PRES   REMARKS
EPHRATA        CLEAR     50  42  74 SW12      30.05R
MOSES LAKE     CLEAR     55  45  68 S7        30.06R
PASCO          CLEAR     58  48  69 SW15      30.11R
HERMISTON, OR  PTCLDY    51  43  74 SW7       30.14R
$$

WAZ036>038-241200-
NORTHEAST WASHINGTON

CITY           SKY/WX    TMP DP  RH WIND       PRES   REMARKS
SPOKANE GEIGER PTCLDY    51  44  77 S12       30.07R
SPOKANE FELTS  MOCLDY    54  46  74 S12       30.09R
FAIRCHILD AFB  CLEAR     49  45  87 S14       30.08R
COEURDALENE,ID CLOUDY    54  46  76 CALM      30.06R
DEER PARK      MOCLDY    52  46  80 S10       30.09R
$$

WAZ029>033-241200-
SOUTHEAST WASHINGTON

CITY           SKY/WX    TMP DP  RH WIND       PRES   REMARKS
PULLMAN        CLEAR     51  42  71 VRB6      30.15R
LEWISTON, ID   MOCLDY    60  43  53 W7        30.10R
WALLA WALLA    CLOUDY    58  46  64 S12       30.15S
PENDLETON, OR  CLEAR     50  45  83 S5        30.15R
$$


USA.gov is the U.S. government's official web portal to all federal, state and local government web resources and services.